Regional Weather Roundup
Issued by NWS

Home | Current Version | Previous Version | Graphics & Text | Print | Product List | Glossary On
Versions: 1 2 3 4 5 6 7 8 9 10 11 12 13 14 15 16 17 18 19 20 21 22 23 24 25 26 27 28 29 30 31 32 33 34 35 36 37 38 39 40 41 42 43 44 45 46 47 48 49 50
000
ASUS45 KABQ 061710
RWRNM
NEW MEXICO REGIONAL WEATHER ROUNDUP
NATIONAL WEATHER SERVICE ALBUQUERQUE NM
1100 AM MDT MON JUL 06 2015

NOTE: "FAIR" MEANS FEW OR NO CLOUDS BELOW 12,000 FEET AGL WITH NO
       SIGNIFICANT WEATHER OR OBSTRUCTIONS TO VISION.

      THIS PRODUCT IS RELEASED AS TWO VERSIONS.  ONE VERSION NEAR
      THE TOP OF THE HOUR CONTAINING PRELIMINARY DATA FROM ALBUQUERQUE
      AND OTHER STATIONS.  A FINAL VERSION WITH ADDITIONAL DATA IS
      ISSUED ABOUT 10 MINUTES AFTER THE HOUR.

NMZ501-503-504-510>518-061800-
NORTHWEST PLATEAU/NORTHCENTRAL MOUNTAINS

CITY           SKY/WX    TMP DP  RH WIND       PRES   REMARKS
FARMINGTON     SUNNY     81  51  35 VRB7      30.16F
LOS ALAMOS     MOSUNNY   69  57  66 E3        30.29S
SANTA FE       PTSUNNY   76  53  44 N8        30.22S
TAOS           PTSUNNY   66  50  55 NE3       30.30R
ANGEL FIRE     CLOUDY    60  53  76 N5        30.38S

$$
NMZ402-403-502-505>509-061800-
WESTCENTRAL MOUNTAINS/SOUTHWEST MOUNTAINS

CITY           SKY/WX    TMP DP  RH WIND       PRES   REMARKS
GALLUP         SUNNY     74  55  51 W12       30.27S
GRANTS         MOSUNNY   75  55  48 NE7       30.28S
SILVER CITY      N/A     81  54  39 NW16G22   30.21S

$$
NMZ407-409-411-412-061800-
SOUTHERN DESERTS

CITY           SKY/WX    TMP DP  RH WIND       PRES   REMARKS
LORDSBURG      FAIR      82  57  42 NW9G20    30.14F
DEMING         SUNNY     85  55  35 NW14G23   30.12F
LAS CRUCES     SUNNY     83  54  36 NW5       30.14S
HOLLOMAN AFB     N/A     85  57  38 VRB5      30.07S
ALAMOGORDO     MOSUNNY   84  54  34 NW10      30.09S
T OR C         MOSUNNY   84  52  33 VRB3      30.14S

$$
NMZ519>523-061800-
CENTRAL VALLEYS/CENTRAL HIGHLANDS

CITY           SKY/WX    TMP DP  RH WIND       PRES   REMARKS
ALBUQUERQUE    MOSUNNY   79  54  41 W8        30.18S
DOUBLE EAGLE   PTSUNNY   75  61  60 W6        30.21F
MORIARTY ARPT    N/A     78  49  35 N7        30.23S
CLINES CORNERS CLOUDY    74  53  48 VRB7      30.26R
BELEN          FAIR      81  51  34 NW7       30.17F
SOCORRO        FAIR      83  50  31 N16       30.14S

$$
NMZ524>526-539-540-061800-
SOUTHCENTRAL MOUNTAINS

CITY           SKY/WX    TMP DP  RH WIND       PRES   REMARKS
RUIDOSO        MOSUNNY   73  54  49 NW6       30.27S

$$
NMZ527>531-061800-
NORTHEAST HIGHLANDS/NORTHEAST PLAINS

CITY           SKY/WX    TMP DP  RH WIND       PRES   REMARKS
LAS VEGAS      CLOUDY    69  55  60 NE10      30.28R
RATON          LGT RAIN  65  55  70 N13       30.25R
CLAYTON        PTSUNNY   74  59  59 N25G31    30.15R

$$
NMZ532>537-061800-
EASTCENTRAL PLAINS

CITY           SKY/WX    TMP DP  RH WIND       PRES   REMARKS
TUCUMCARI      MOSUNNY   85  60  42 N18G28    30.05R
CANNON AFB     MOSUNNY   84  63  48 VRB2      30.04S
CLOVIS AIRPORT PTSUNNY   84  63  48 CALM        N/A

$$
NMZ028-029-538-061800-
SOUTHEAST PLAINS

CITY           SKY/WX    TMP DP  RH WIND       PRES   REMARKS
ROSWELL        SUNNY     89  57  33 CALM      30.00S
ARTESIA        SUNNY     90  59  35 CALM      30.01S
CARLSBAD       SUNNY     93  59  31 S7        29.98F
HOBBS          SUNNY     90  59  35 S13       30.03S


$$


USA.gov is the U.S. government's official web portal to all federal, state and local government web resources and services.